Location: *
(55.5817°S, 142.4781°W)
Time: 07:25:02
(UTC+00:00)

Cosmos 2263 Rocket - Pass Details

Date: 29 April 2025
Orbit: 821 x 849 km, 71.0° (Epoch: 23 May)

Event Time Altitude Azimuth Distance (km) Brightness Sun altitude
Exits shadow 12:16:03 30° 127° (SE) 1,471 3.8 -37.9°
Drops below altitude 10° 12:20:08 10° 83° (E) 2,447 5.1 -37.4°
Sets 12:22:50 0° 72° (ENE) 3,373 5.8 -37.1°
